Regional Weather Roundup
Issued by NWS Mobile, AL

Home | Current Version | Previous Version | Text Only | Print | Product List | Glossary Off
Versions: 1 2 3 4 5 6 7 8 9 10 11 12 13 14 15 16 17 18 19 20 21 22 23 24 25 26 27 28

000
ASUS44 KMOB 240212
RWRMOB
REGIONAL WEATHER ROUNDUP
NATIONAL WEATHER SERVICE MOBILE AL
800 PM CST THU FEB 23 2017

NOTE: "FAIR" INDICATES FEW OR NO CLOUDS BELOW 12,000 FEET WITH NO
      SIGNIFICANT WEATHER AND/OR OBSTRUCTIONS TO VISIBILITY.

  * THESE STATIONS ARE PART OF THE UNIVERSITY OF SOUTH ALABAMA
    MESONET AND ARE NOT UNDER NWS OR FAA QUALITY CONTROL.

ALZ061>064-240300-
COASTAL ALABAMA

CITY           SKY/WX    TMP DP  RH WIND       PRES   REMARKS
MOBILE REG APT CLEAR     62  58  86 CALM      29.83R
BROOKLEY FIELD CLEAR     64  62  93 CALM      29.84R
USA CAMPUS*    NOT AVBL
DOG RIVER*     NOT AVBL


CITY           SKY/WX    TMP DP  RH WIND       PRES   REMARKS
GULF SHORES    FOG       61  61 100 CALM      29.83R VSB 1

$$

ALZ051>060-240300-
INTERIOR SOUTHWEST AND SOUTH CENTRAL ALABAMA

CITY           SKY/WX    TMP DP  RH WIND       PRES   REMARKS
GREENVILLE     CLEAR     62  57  83 CALM      29.82R
EVERGREEN      CLEAR     63  58  83 CALM      29.82R
ATMORE*        NOT AVBL
ANDALUSIA/OPP  CLEAR     65  60  84 CALM      29.82R
ANDALUSIA*     NOT AVBL
FLORALA APT    PTCLDY    63  59  87 CALM      29.84R
FLORALA*       NOT AVBL

$$

FLZ001>006-240300-
WESTERN FLORIDA PANHANDLE

CITY           SKY/WX    TMP DP  RH WIND       PRES   REMARKS
PENSACOLA      CLEAR     67  62  84 W6        29.82R
NAS PENSACOLA  CLEAR     64  62  93 CALM      29.82R
MILTON         CLEAR     64  62  93 SW3       29.83R
WHTNG S FIELD  CLEAR     66  63  90 CALM      29.83R


CITY           SKY/WX    TMP DP  RH WIND       PRES   REMARKS
JAY*           NOT AVBL
DUKE FIELD     PTCLDY    65  60  83 CALM      29.82R
CRESTVIEW      MOCLDY    64  60  87 CALM      29.83R
VALPARAISO     PTCLDY    66  62  87 W3        29.82R
DESTIN         CLEAR     70  70 100 CALM      29.82R

$$

MSZ076-079-240300-
INTERIOR SOUTHEAST MISSISSIPPI

CITY           SKY/WX    TMP DP  RH WIND       PRES   REMARKS
LEAKESVILLE*   NOT AVBL
AGRICOLA*      NOT AVBL

$$

MARINE OBSERVATIONS

STATION/POSITION TIME  TEMP    WIND        PRES    WAVE
                       AIR SEA DIR/SP/G            HT/PER
                 (UTC) (F)     (DEG/KT/KT) (MB)    (FT/S)
PASCAGOULA       0142   66     190/  4/  5 1009.8R
PETIT BOIS ISLND 0142   65     190/  6/  6 1010.6R
GRAND BAY        0045   66     200/  5     1010.0S
KATRINA CUT      0130          210/  7     1009.5S
CEDAR POINT      0130   66     230/  7     1009.5R
E DAUPHIN ISLAND 0100   65     210/  4/  6 1009.2R
MIDDLE BAY LIGHT 0130   65     200/  8     1009.8R
USCG MOBILE BAY  0142   65 65  190/  3/  5 1010.5R
STATE DOCKS      0142   67 64              1009.7R
MEAHER PARK      0130   67     170/  7     1009.5R
WEEKS BAY        0045   64                   N/A
FORT MORGAN      0142   66     210/  8/  9   N/A
12 S ORANGE BCH  0050   67 69  190/  8/  8 1009.5R   2/ 5
PENSACOLA BAY    0142   67 68  260/  4/  6 1010.0R
67 S FORT MORGAN 0130   68      90/  4     1009.8R

$$

SELECTED LOCATIONS ACROSS THE REGION

CITY           SKY/WX    TMP DP  RH WIND       PRES   REMARKS
NEW ORLEANS    CLEAR     67  59  75 S8        29.80R
GULFPORT       CLEAR     65  63  93 SE3       29.82R
PASCAGOULA AP  FOG       58  55  90 CALM      29.83R VSB 3/4
PASCAGOULA*    NOT AVBL
HATTIESBURG    CLEAR     68  58  70 S9        29.80R
LAUREL         CLEAR     66  54  63 S7        29.81R
MERIDIAN       CLEAR     67  61  81 S7        29.78S
JACKSON        CLEAR     68  56  65 S8        29.72S
MONTGOMERY     CLEAR     67  56  67 E6        29.81S
TROY           CLEAR     62  59  90 CALM      29.83R
ASHFORD*       NOT AVBL
DOTHAN         CLEAR     63  61  93 CALM      29.86R
PANAMA CITY    CLEAR     65  60  84 N5        29.80R

$$





USA.gov is the U.S. government's official web portal to all federal, state and local government web resources and services.